GFSWCAN_250_rhum_090.txt.gz
RH
54 50 18 5 8 12 14 11 13 11 14 32 39 71 100 100 100 87 78 84 80 89 91 95 95 94 86 74 81 74 71 62 53 51 52 48 51 50 48 43 50 53 57 56 55 57 51 50 58 58 63 58 51 47
57 56 24 5 9 13 12 14 20 13 26 41 52 99 100 100 97 82 78 87 86 95 95 96 97 95 88 78 78 84 70 66 59 56 56 56 55 53 54 55 53 55 56 61 58 64 58 61 67 68 63 65 65 71
56 51 23 5 8 19 16 32 53 30 25 61 94 100 100 100 98 73 90 98 94 99 100 99 100 98 92 83 84 85 85 71 66 64 60 57 58 58 60 64 61 60 58 66 63 69 60 59 64 68 76 72 75 83
78 40 21 9 9 23 17 34 38 35 42 61 100 100 100 100 92 80 94 100 99 100 100 100 100 100 96 90 85 82 84 88 76 74 70 64 60 59 61 64 60 60 58 60 66 64 70 59 62 75 68 78 80 79
65 42 21 10 8 24 26 25 43 50 61 80 98 100 100 100 97 89 100 99 99 100 100 100 100 100 96 89 89 90 84 92 91 92 82 69 65 63 65 71 67 59 60 60 55 68 65 62 65 69 74 80 82 82
88 34 19 9 6 15 26 50 71 81 83 82 100 100 100 100 97 95 100 97 99 100 100 100 100 100 98 98 95 90 93 90 95 100 98 86 81 70 72 71 66 59 58 55 55 66 66 70 73 76 72 80 93 88
91 32 21 10 6 10 35 87 90 100 100 84 96 100 100 98 88 100 100 100 88 100 100 100 100 100 100 95 95 93 90 90 92 100 100 97 90 83 81 75 68 65 57 57 54 58 71 70 77 75 76 76 93 87
70 26 26 10 6 7 27 72 100 100 100 100 100 100 100 97 86 89 96 94 83 91 100 100 100 100 100 98 100 100 100 95 95 99 95 95 87 80 82 75 70 68 61 56 56 58 65 67 79 74 79 81 82 83
55 23 27 10 7 6 13 52 100 100 100 100 100 100 100 99 80 85 91 74 89 94 100 100 100 100 100 100 100 100 100 100 100 100 95 88 88 79 75 78 71 67 62 56 58 59 65 65 77 75 82 82 84 76
38 22 22 10 7 4 8 30 87 100 100 100 100 100 100 100 88 88 99 85 87 95 100 100 100 100 98 100 100 100 100 100 100 100 92 86 88 84 78 82 71 68 65 58 55 60 65 65 78 81 82 89 83 77
26 16 17 8 7 5 7 16 63 100 100 100 100 100 100 100 99 76 91 98 100 100 100 97 100 100 100 100 100 100 100 100 100 100 91 81 94 95 84 82 72 66 66 56 55 63 63 67 77 84 80 90 83 79
15 13 10 7 6 6 5 10 53 98 100 100 100 100 100 100 100 92 81 91 100 100 100 100 100 100 100 100 100 100 100 100 100 95 90 99 96 91 85 81 71 68 63 56 60 62 59 74 86 91 87 89 82 76
10 10 8 6 6 6 5 11 35 78 100 100 100 100 100 100 100 100 99 96 96 100 100 100 100 98 97 100 100 100 99 98 100 100 96 98 100 95 84 72 66 65 58 60 62 60 69 78 80 89 90 81 76 88
8 8 7 6 6 6 4 10 19 65 87 100 100 100 100 100 100 100 100 100 96 84 98 100 100 100 100 100 100 100 100 100 100 95 100 100 100 92 76 67 64 58 60 62 65 60 73 79 89 95 81 78 87 79
9 7 6 6 6 6 4 7 11 47 80 100 100 98 100 100 100 100 100 100 99 86 88 95 90 90 95 100 100 100 100 100 100 100 99 99 90 77 65 62 63 64 67 68 65 74 88 83 84 93 83 81 83 69
8 6 5 5 6 6 4 5 9 22 61 90 100 100 100 100 100 100 100 100 100 95 86 87 94 98 100 100 100 100 100 100 100 100 100 100 86 70 59 66 70 66 67 69 72 77 84 84 84 82 80 74 88 73
6 6 5 5 5 6 4 5 8 11 38 82 100 100 100 100 100 100 100 100 100 97 90 94 98 100 100 100 100 100 100 100 100 100 100 87 80 75 66 68 68 65 72 74 83 76 88 88 88 86 82 73 74 76
5 5 4 5 5 6 4 4 6 8 22 82 100 100 100 100 100 100 100 100 100 100 97 100 100 99 100 100 100 100 100 100 100 100 100 97 100 81 69 70 77 74 76 73 70 80 87 93 87 86 79 80 67 70
5 5 5 4 5 6 4 4 4 6 26 75 100 100 100 100 100 100 100 100 100 94 97 97 95 100 100 100 100 100 100 100 100 100 100 99 92 85 89 94 91 84 74 76 77 89 84 84 74 76 72 68 71 56
4 5 5 4 4 6 4 3 4 9 32 84 100 100 100 100 100 100 100 100 95 87 88 91 100 100 100 100 100 100 100 99 100 100 96 91 95 97 100 100 92 85 78 85 88 96 82 72 67 77 67 69 63 48
4 5 4 4 4 5 5 4 5 14 42 83 97 100 100 100 100 100 100 100 92 92 97 100 100 100 100 100 100 100 100 100 100 100 96 95 100 94 97 100 96 87 88 85 84 89 73 67 73 64 62 62 54 58
4 4 4 4 4 5 5 4 4 13 45 99 100 100 100 100 100 100 100 100 100 97 100 100 100 99 100 100 100 100 100 100 100 100 96 100 100 98 99 100 98 95 90 88 91 79 67 66 61 59 60 56 54 43
4 4 4 4 4 5 5 4 5 14 47 84 100 100 100 100 100 100 100 100 100 100 100 100 99 100 100 100 100 100 100 100 100 100 98 98 98 100 100 100 100 99 92 81 82 72 66 54 56 53 53 49 57 54
4 4 4 4 4 4 4 4 5 10 32 59 87 89 100 100 100 100 100 100 100 100 100 100 100 100 100 100 100 100 100 100 100 100 100 100 97 100 100 100 100 93 88 87 79 65 59 49 52 55 54 55 48 50
3 3 4 4 4 4 3 3 4 15 40 67 78 90 98 100 100 100 100 100 100 100 100 100 100 100 100 100 100 100 100 100 100 100 100 100 100 100 100 100 100 94 86 88 67 62 55 54 50 39 37 51 51 48
4 4 4 4 5 4 4 4 5 17 57 76 96 100 100 100 100 100 100 100 100 100 100 100 100 100 100 100 100 100 100 100 100 100 100 100 100 100 100 100 89 85 83 73 70 58 58 51 45 40 52 48 41 44
3 4 4 4 4 4 4 5 7 16 52 66 97 100 100 100 100 100 100 100 100 100 100 100 100 100 100 100 100 100 100 100 100 100 100 100 100 100 96 94 90 81 68 72 62 58 49 38 40 43 47 43 37 29
4 4 4 4 4 4 4 5 8 14 36 69 95 100 100 100 100 100 100 100 100 100 100 100 100 100 100 100 100 100 100 100 100 100 100 100 100 100 97 91 83 77 71 58 65 45 38 39 41 48 39 26 26 11
3 3 3 3 4 4 5 5 6 17 55 94 100 100 100 100 100 100 100 100 100 100 100 100 100 100 100 100 100 100 100 100 100 100 100 100 95 85 86 83 71 68 60 59 48 40 38 43 44 33 21 20 10 4
3 4 4 4 3 4 5 6 14 51 86 100 100 100 100 100 100 100 100 100 100 100 100 100 100 100 100 100 100 100 100 100 100 100 96 86 84 88 85 74 65 58 52 50 37 37 42 41 34 23 16 8 4 3
6 6 4 4 5 5 6 9 22 50 87 100 100 100 100 100 100 100 100 100 100 100 100 100 100 100 100 100 100 100 100 100 100 94 93 88 85 79 62 63 51 46 46 36 38 38 40 36 31 18 7 3 3 3
7 6 6 5 5 5 5 19 41 66 100 100 100 100 100 100 100 100 100 100 100 100 100 100 100 100 100 100 100 100 100 100 94 88 83 78 69 70 57 56 53 43 37 38 40 38 30 28 13 6 3 3 2 2
7 6 6 5 5 5 17 50 74 99 100 100 100 100 100 100 100 100 100 100 100 100 100 100 100 100 100 100 100 100 98 100 91 85 74 67 68 62 52 50 43 37 38 35 44 40 37 14 5 3 3 2 3 4

GFSWCAN_250_rhum_096.txt.gz
RH
82 78 79 73 68 100 80 63 31 77 68 45 57 80 84 80 86 88 91 85 80 84 77 67 63 59 57 57 57 56 54 54 56 58 56 54 55 55 57 56 57 58 61 58 56 60 64 64 62 65 62 60 59 62
75 77 91 68 66 73 90 54 33 70 95 99 73 95 87 82 95 97 86 90 84 92 92 79 74 69 66 61 58 55 55 56 60 62 64 68 66 61 64 61 58 57 57 59 62 66 64 67 64 67 65 69 68 65
78 65 99 84 67 76 100 65 36 49 92 100 98 95 99 92 94 93 97 96 87 89 99 100 92 93 82 73 68 62 67 69 67 67 67 68 74 69 65 66 65 62 56 54 56 61 65 70 72 70 73 67 58 58
62 95 82 91 93 66 90 79 41 38 85 100 100 83 98 99 100 92 89 94 97 100 98 100 100 100 100 100 97 84 84 85 81 75 81 79 80 82 81 76 70 69 67 62 58 55 60 64 67 72 70 67 63 70
71 90 51 73 80 83 81 83 37 30 60 70 93 100 100 100 100 100 95 98 100 98 95 96 99 99 97 99 95 92 98 94 91 91 90 90 87 86 88 96 92 82 77 68 68 67 58 60 68 68 73 69 68 67
100 84 70 72 64 85 89 58 50 29 27 82 95 100 100 100 100 100 100 98 100 100 97 96 95 100 99 100 100 100 98 91 90 100 99 93 89 88 88 84 88 96 95 89 76 72 68 60 63 64 77 67 69 83
98 73 68 83 78 88 96 86 54 40 30 31 92 99 98 100 100 100 100 100 100 100 100 100 94 91 97 97 100 100 99 100 99 100 100 99 89 88 92 86 84 86 93 95 91 80 74 67 61 64 68 67 76 73
96 71 95 82 98 96 87 71 46 37 36 24 42 100 96 100 100 100 100 100 100 100 100 100 100 96 92 100 100 100 98 98 96 99 100 98 97 90 88 86 82 84 88 91 93 90 77 69 65 68 71 67 69 68
96 100 82 84 100 92 85 82 44 39 29 27 15 66 100 97 100 100 100 100 100 98 100 100 100 100 97 96 100 100 100 97 99 99 99 100 100 98 98 88 83 80 86 82 89 88 79 71 68 67 70 65 73 68
100 100 93 87 98 95 81 93 38 29 31 24 21 12 74 100 85 100 100 100 95 99 94 100 100 100 97 100 100 100 100 100 99 100 92 98 100 100 100 97 89 82 80 75 77 81 75 70 70 68 73 74 76 68
100 98 90 94 85 69 97 84 41 25 34 28 18 15 21 76 99 79 100 100 100 100 100 99 99 100 94 83 92 100 100 100 92 100 100 91 100 100 100 100 86 85 74 75 72 74 72 70 71 82 83 78 70 62
100 100 100 92 67 86 95 70 35 24 21 24 22 14 12 17 78 85 89 100 100 100 100 100 100 100 100 93 88 92 99 100 100 98 100 100 100 100 100 98 87 84 82 83 73 72 77 69 67 76 76 69 64 57
100 93 83 82 66 88 87 54 32 18 17 17 18 17 12 9 11 81 85 100 100 100 100 97 93 90 91 85 90 84 77 98 100 92 100 95 100 100 100 100 98 96 87 85 81 72 74 68 64 63 63 63 61 63
100 100 100 100 99 72 73 42 25 19 14 15 15 14 12 10 7 46 100 100 100 100 100 100 87 96 100 100 91 100 73 87 100 100 100 85 100 100 100 100 100 100 87 84 87 80 75 66 71 69 64 68 66 69
100 100 93 93 74 74 53 42 22 14 12 13 14 11 12 11 8 19 100 100 100 100 100 98 93 100 100 99 96 96 90 90 100 100 100 96 100 100 100 100 100 100 96 92 92 86 76 70 71 71 66 76 75 70
100 93 60 62 70 43 47 40 24 12 9 11 12 10 13 10 8 11 78 100 100 100 100 100 99 98 98 100 100 100 97 100 100 100 82 100 100 100 100 100 100 100 100 100 93 85 82 74 73 77 79 92 81 74
97 54 41 50 39 53 43 29 21 11 9 9 14 10 10 10 8 8 36 100 100 99 93 94 100 98 92 100 100 100 100 100 100 96 100 100 100 100 100 100 100 100 100 100 100 93 86 84 88 94 83 80 75 83
43 30 36 53 51 36 24 11 11 8 8 10 13 10 8 9 7 7 14 72 92 91 90 86 85 93 84 84 100 100 100 100 100 100 100 100 100 100 100 100 100 100 100 99 98 100 95 81 79 85 96 75 81 83
43 36 38 51 46 19 10 8 8 8 9 12 13 10 7 8 7 7 7 26 62 72 83 89 76 80 86 74 91 100 100 100 99 92 100 100 100 100 100 100 100 100 100 100 93 87 85 79 78 76 90 82 76 81
40 45 45 26 13 10 7 7 7 9 12 13 11 8 6 7 7 7 7 8 18 31 45 66 85 75 76 76 77 100 100 100 98 100 100 100 100 100 100 100 100 100 100 100 92 81 84 80 81 83 89 83 75 68
27 43 29 10 7 5 6 5 7 9 10 11 9 6 6 6 6 6 6 7 6 12 30 72 100 89 71 72 76 98 100 100 100 100 100 100 100 100 100 100 100 100 100 100 90 88 92 91 89 82 80 71 66 63
56 26 11 6 6 4 5 6 7 8 9 12 8 5 6 6 6 6 6 5 6 13 37 50 94 99 92 76 74 96 100 100 100 100 100 100 100 100 100 100 100 100 100 100 100 97 98 96 85 82 79 70 60 63
11 8 6 5 4 5 6 7 8 9 10 10 8 6 6 6 6 5 5 5 6 14 46 50 73 91 100 92 86 92 96 100 96 91 95 100 100 100 100 100 100 100 100 100 97 94 98 88 84 81 82 67 61 62
6 5 5 4 4 4 6 7 7 8 8 9 7 5 5 5 5 5 5 6 7 10 32 59 68 82 95 100 100 98 87 97 100 100 100 100 100 100 100 100 100 100 100 98 100 100 88 86 81 89 87 72 69 58
4 4 4 4 4 5 6 7 6 7 8 8 6 5 5 5 5 5 6 7 8 10 24 53 80 84 90 97 100 100 99 98 100 100 100 97 92 100 100 100 100 100 100 100 100 92 92 90 89 92 70 73 65 53
4 4 4 5 6 6 6 6 7 7 6 6 5 5 5 5 5 5 6 8 8 11 22 55 95 99 97 100 100 100 100 100 100 100 97 88 99 100 100 100 100 100 100 99 87 84 86 87 92 78 63 61 57 51
4 5 6 6 6 6 6 6 6 6 5 5 5 5 4 4 5 6 7 8 7 13 31 67 96 100 100 97 100 100 100 100 100 100 100 100 95 95 100 100 100 100 100 100 97 95 95 93 94 68 61 61 52 50
7 8 8 7 6 6 6 6 6 5 5 5 5 5 4 5 5 5 7 7 7 6 22 71 100 100 100 97 100 100 100 100 100 100 94 98 99 100 100 100 100 100 100 100 100 100 100 82 80 66 62 53 49 46
9 8 7 7 7 6 6 6 6 6 5 5 5 4 4 5 5 5 6 5 5 4 9 56 99 100 100 100 100 100 100 100 100 100 100 99 100 100 100 100 100 100 98 100 91 90 88 82 70 66 57 53 46 44
9 7 7 7 7 7 6 5 5 5 4 4 4 4 4 4 4 5 6 6 4 5 7 27 78 84 93 100 100 100 100 100 100 100 100 100 100 100 100 100 100 100 99 85 83 87 78 65 65 57 54 46 44 42
7 6 5 5 5 5 5 5 4 4 4 4 4 4 4 4 5 5 6 7 7 8 13 21 51 69 76 92 100 100 100 100 100 100 100 100 100 100 100 100 100 100 93 81 81 73 67 58 59 49 43 41 42 47
6 5 4 4 4 4 5 5 4 5 5 4 4 4 4 4 5 6 7 8 8 9 23 37 40 52 59 72 88 96 100 100 100 100 100 100 100 100 100 100 100 88 78 78 77 68 56 54 49 45 45 46 49 48
4 4 4 4 4 5 5 5 5 5 5 5 5 5 6 6 6 6 8 9 9 9 18 43 51 50 57 67 81 90 95 100 100 100 100 100 100 96 98 94 84 83 82 78 70 56 56 47 46 44 46 53 57 38

GFSWCAN_250_rhum_099.txt.gz
RH
74 82 71 73 86 64 57 51 90 68 35 100 100 100 100 100 91 81 67 60 52 50 52 54 57 55 56 58 60 60 59 58 58 57 56 55 55 58 60 61 64 63 63 61 59 58 57 58 56 53 51 51 52 50
69 89 70 76 90 77 49 61 66 80 38 68 100 100 100 100 100 95 88 74 67 62 59 57 60 59 59 60 61 63 64 66 67 66 64 64 65 64 61 58 57 62 64 65 64 64 66 64 60 62 60 56 58 63
94 88 74 72 92 92 78 52 66 70 79 37 84 96 100 100 100 100 98 90 85 82 74 68 64 64 64 67 79 77 68 65 66 68 77 78 77 74 70 71 67 66 63 60 65 69 70 72 68 72 67 63 61 63
76 74 75 78 76 87 78 60 73 77 64 77 38 91 82 100 100 100 100 100 96 92 96 95 84 78 76 76 79 92 95 83 79 79 79 84 87 89 89 85 82 81 81 79 75 69 69 72 73 67 72 67 63 66
80 85 89 89 85 82 77 61 89 98 80 82 70 46 100 84 99 100 100 100 100 100 94 97 99 98 98 100 99 96 100 100 95 92 92 92 89 85 87 86 90 93 92 91 86 85 81 74 72 80 77 75 74 72
91 84 99 99 80 92 92 50 74 98 95 67 86 47 54 100 96 92 100 100 100 100 100 100 100 100 100 99 100 98 98 100 100 99 96 95 87 82 80 75 78 84 87 87 89 90 88 83 75 78 87 78 76 77
100 99 100 100 92 100 100 64 62 99 96 78 67 85 36 46 100 100 97 100 100 100 100 100 100 100 100 100 100 100 100 100 100 99 96 89 87 83 80 73 76 76 78 83 85 86 84 82 78 77 79 77 80 81
100 100 100 100 97 98 82 98 68 75 100 89 70 75 56 34 48 100 100 94 100 100 100 100 100 95 96 98 100 100 100 100 93 91 90 89 91 92 91 84 83 79 75 75 78 78 82 80 76 78 79 86 83 80
97 100 100 93 100 94 85 99 55 65 98 96 100 86 71 36 31 41 92 100 90 94 100 100 100 100 96 89 96 100 100 100 100 92 88 89 97 97 100 89 87 89 84 78 76 77 73 75 73 72 73 73 71 62
100 100 100 83 100 99 100 70 60 60 60 88 100 100 68 47 30 25 28 75 100 99 93 100 100 100 100 93 80 90 97 100 100 100 99 96 86 98 100 100 99 83 84 77 75 77 74 70 73 70 68 69 70 64
100 100 100 84 100 100 95 92 93 71 65 76 76 94 86 57 26 25 19 27 67 100 100 100 100 100 100 100 96 83 83 76 84 99 100 100 75 100 100 100 100 98 93 94 83 88 82 73 71 73 70 67 67 69
100 100 100 96 100 100 97 83 69 80 71 59 56 74 100 59 34 20 22 20 51 93 100 100 100 100 96 100 94 81 76 74 76 87 97 100 64 96 100 100 100 100 100 100 100 99 87 90 92 91 77 75 71 74
100 100 100 100 99 100 100 78 90 74 61 57 52 66 90 54 36 18 20 24 24 73 100 100 100 100 100 97 92 90 69 66 87 84 78 100 88 71 100 100 100 100 100 100 100 100 95 98 94 93 93 87 83 79
100 100 100 100 100 100 76 94 77 66 75 66 52 65 81 45 36 28 19 18 19 20 56 100 100 100 100 99 94 80 79 78 78 92 100 100 88 89 84 98 100 100 100 100 100 100 100 100 94 99 100 98 88 83
100 99 99 98 100 89 92 96 82 85 62 60 51 56 87 35 20 17 19 16 16 18 16 36 67 100 100 99 81 74 86 93 86 100 100 100 100 86 66 91 100 100 100 100 100 100 100 100 100 100 100 92 89 79
100 100 100 100 100 100 96 80 79 80 65 52 54 68 61 28 17 12 13 15 13 17 16 12 21 56 100 100 93 63 68 96 100 100 100 100 83 80 86 94 100 100 98 100 100 100 100 100 96 90 99 96 83 70
100 100 100 100 99 84 86 88 77 61 53 49 40 74 68 28 20 14 11 14 12 13 17 12 9 18 55 100 100 95 73 88 100 100 100 100 77 79 98 100 100 100 99 99 100 100 100 100 100 89 80 78 78 75
100 100 100 100 100 100 93 72 67 55 71 68 36 56 39 18 13 12 10 9 10 10 12 14 8 8 22 69 100 100 90 80 90 100 100 100 98 100 98 100 100 100 97 99 100 100 100 100 100 100 89 83 78 77
100 100 100 100 98 89 62 52 77 80 53 29 31 35 21 15 10 10 9 8 10 10 9 11 10 6 12 49 78 100 100 91 86 85 92 99 91 100 100 100 100 100 93 100 100 100 100 100 100 100 96 96 85 79
100 100 100 99 56 58 65 71 61 43 45 36 20 25 18 12 9 10 8 8 8 8 9 9 12 8 9 23 48 78 100 100 100 98 90 90 99 100 100 100 94 97 99 100 100 100 100 100 100 100 100 97 89 82
83 77 46 23 24 31 36 36 30 52 46 21 19 17 9 8 8 9 9 9 8 10 14 12 12 9 7 12 42 50 72 98 100 93 100 93 88 93 91 83 92 99 100 100 100 100 100 100 100 100 98 87 85 88
65 39 37 21 23 29 28 34 73 47 23 14 16 12 8 8 8 9 10 7 9 14 17 11 10 9 6 6 19 44 53 79 100 100 98 97 98 84 77 76 86 98 100 99 100 100 100 99 99 100 94 78 83 83
34 24 20 18 22 21 27 45 47 22 15 11 9 8 8 8 8 8 7 9 10 12 12 8 8 8 6 6 8 34 53 62 95 100 100 100 100 98 81 78 90 97 98 99 100 100 98 94 100 100 100 91 89 91
26 14 15 18 24 19 18 23 20 17 11 7 7 7 7 8 8 7 9 10 8 7 9 7 7 7 6 6 7 16 55 70 78 99 100 100 100 100 91 92 97 95 100 100 100 100 100 100 100 100 100 100 95 88
24 26 23 27 21 29 28 16 13 9 6 6 6 7 7 7 8 9 10 8 6 6 6 6 6 6 6 6 7 8 24 58 74 93 100 100 100 100 100 100 90 93 100 100 100 100 100 100 100 100 100 100 92 82
20 20 25 22 59 28 17 12 8 6 6 6 6 6 6 6 7 9 8 6 5 5 5 6 6 5 5 6 7 7 13 34 58 74 90 98 100 100 100 100 99 99 100 100 100 100 100 100 98 98 100 100 88 76
17 14 36 28 16 16 11 7 6 5 6 6 6 5 6 6 7 7 5 4 4 4 5 5 5 5 5 6 6 7 9 18 45 72 88 94 100 100 98 100 100 100 99 100 100 95 86 97 100 97 94 87 74 67
11 11 18 14 12 10 7 6 5 5 5 5 5 5 5 6 5 4 4 4 4 4 4 5 5 5 5 6 6 7 7 14 33 65 90 93 99 100 100 100 100 100 96 100 100 98 94 97 98 92 85 76 64 64
9 11 9 10 9 7 6 5 5 5 5 5 5 5 5 5 5 4 4 4 4 4 4 5 5 5 5 5 6 7 7 9 22 58 100 100 100 99 100 100 100 100 100 100 100 100 94 91 84 76 70 66 60 51
7 7 7 7 8 7 6 6 5 5 5 5 5 5 5 5 4 4 4 4 4 4 4 5 5 5 4 5 6 7 8 9 21 48 92 100 100 100 100 100 100 100 100 100 100 93 84 79 73 71 66 61 50 49
5 6 6 8 8 6 6 6 5 5 5 5 4 5 5 4 4 4 4 4 4 4 4 4 5 5 5 5 7 7 8 10 17 33 70 88 94 100 100 100 100 100 100 99 93 88 81 71 65 60 61 55 53 51
7 7 8 9 7 5 6 6 5 5 6 5 5 5 4 5 4 4 5 4 4 4 4 4 5 5 5 6 7 7 7 9 15 31 56 72 80 92 100 100 100 100 96 93 88 79 68 65 64 66 63 59 52 48
7 7 8 8 6 5 6 6 5 6 6 6 5 5 4 5 5 5 5 5 4 4 4 4 5 5 5 5 6 6 6 8 17 35 55 66 78 88 94 100 100 100 91 88 83 75 78 78 76 70 65 59 52 47

GFSWCAN_250_rhum_102.txt.gz
RH
100 99 100 98 73 51 43 39 34 31 47 60 72 69 58 75 94 100 100 97 78 62 53 51 48 49 50 47 47 48 51 52 54 56 55 53 54 55 58 60 61 60 57 56 52 52 52 48 45 46 46 46 45 50
95 100 100 79 76 74 62 55 42 30 46 53 40 66 69 67 76 90 98 100 100 95 81 66 59 55 53 54 60 63 65 65 63 63 64 63 61 60 60 60 59 61 61 61 63 62 63 58 56 55 54 53 51 51
100 100 100 100 97 82 85 72 41 36 41 44 45 55 74 99 69 69 94 96 98 100 100 93 85 75 72 70 70 66 71 72 76 83 80 76 76 76 76 74 73 70 69 67 64 64 64 64 65 64 62 60 57 56
100 100 100 100 99 100 92 98 67 45 40 34 51 50 58 71 79 78 81 89 88 94 98 99 90 94 98 100 92 88 87 83 85 89 90 85 83 83 85 83 84 85 87 86 82 77 76 77 81 79 80 76 70 64
100 100 100 100 100 100 94 79 83 46 49 39 48 53 50 64 81 73 59 97 96 82 96 99 100 89 94 100 100 99 93 92 93 88 89 85 83 80 79 76 74 78 79 79 85 90 89 86 78 81 82 78 85 81
100 100 100 100 100 100 93 83 80 79 53 53 64 55 44 56 72 65 86 67 78 100 93 99 100 100 96 92 99 100 99 97 91 89 90 84 78 76 77 76 75 75 76 80 76 75 79 83 82 80 80 77 73 78
100 100 100 100 97 100 100 73 100 77 42 62 59 61 70 55 63 62 58 82 71 55 84 100 100 100 100 100 93 98 100 100 100 91 87 85 81 76 70 68 66 66 68 76 81 81 80 75 76 77 79 78 74 73
100 100 100 100 100 100 100 94 100 100 76 90 76 74 66 74 72 65 68 67 72 48 68 96 98 100 99 100 99 92 97 100 98 99 91 85 83 91 86 84 79 66 61 64 64 67 78 80 77 76 75 73 74 72
100 100 100 92 100 94 99 100 90 86 100 76 89 86 70 91 95 57 69 65 52 50 38 88 100 99 100 100 92 94 95 90 94 96 83 88 82 85 90 96 100 99 85 80 77 74 63 65 71 76 76 76 75 74
100 99 96 100 100 100 100 97 100 100 95 100 99 97 92 90 100 60 66 77 48 40 48 40 69 100 100 94 100 100 93 83 91 95 76 97 100 67 94 80 97 100 100 100 98 93 89 72 70 68 74 79 84 94
100 100 95 100 100 95 100 100 100 100 100 100 99 98 100 100 86 54 66 67 67 55 45 45 35 40 72 98 96 100 100 94 70 80 79 87 100 62 100 94 73 74 93 99 100 100 100 100 98 91 92 77 77 83
100 100 93 100 93 96 100 100 100 100 100 100 100 100 100 88 90 69 86 55 59 53 38 36 35 27 24 44 77 95 98 89 77 74 73 89 100 87 85 98 100 95 82 82 97 100 100 100 100 100 100 100 96 95
100 100 100 100 100 96 100 100 100 97 100 100 100 94 100 100 100 83 65 57 48 63 37 28 26 33 24 20 34 53 83 96 87 78 74 93 100 100 88 90 85 75 85 89 77 98 100 100 99 100 100 100 100 97
100 100 100 100 100 100 100 98 100 100 100 100 100 98 94 100 100 73 65 67 62 64 32 25 21 20 23 18 17 18 50 73 87 89 86 100 100 100 98 94 89 93 80 77 95 82 91 100 100 100 100 100 100 100
100 100 100 100 100 100 100 100 100 100 100 94 99 100 100 100 100 87 70 62 61 51 21 21 20 17 17 17 14 14 14 52 72 98 93 97 100 100 100 98 82 75 88 87 94 91 78 72 100 100 97 99 100 100
100 100 100 100 100 100 100 100 100 100 92 91 100 100 100 100 100 95 70 59 56 47 39 18 19 15 14 13 12 10 13 16 72 82 80 84 98 98 99 100 89 74 80 79 96 100 100 89 76 97 95 93 100 100
100 100 100 100 100 100 100 100 100 100 89 99 100 100 100 100 100 94 74 65 54 49 30 14 14 12 12 12 13 13 17 20 14 57 72 69 84 94 100 100 99 84 81 79 88 100 100 100 97 91 86 85 97 100
100 100 100 100 100 100 100 100 100 100 100 100 100 100 100 100 100 86 80 57 45 42 27 15 14 15 13 11 12 13 12 16 15 20 77 72 71 79 84 99 100 85 69 74 98 100 100 100 100 100 84 76 88 100
100 100 100 100 100 100 97 86 65 89 100 100 100 100 100 100 99 94 81 52 54 49 26 15 15 13 10 9 8 9 8 10 13 11 27 71 67 73 81 85 100 99 92 85 84 99 100 100 100 100 96 81 85 100
100 100 100 100 100 100 74 92 100 98 100 100 93 93 100 100 100 96 72 60 48 26 16 14 18 11 8 6 6 7 8 8 9 10 10 32 58 56 72 87 99 100 96 92 96 90 90 94 100 100 100 88 92 100
100 100 100 93 100 94 78 97 99 99 100 100 100 100 100 92 86 72 62 67 31 20 15 14 12 10 8 6 6 6 7 8 9 9 10 11 40 74 79 83 80 80 88 99 100 94 100 100 100 100 100 98 93 93
100 100 100 100 100 92 80 100 100 99 81 75 91 96 77 70 61 62 74 45 24 18 12 8 8 9 8 6 6 6 6 9 10 10 9 9 12 52 90 89 96 93 87 98 100 99 99 100 100 100 100 96 100 99
100 100 99 79 58 69 100 99 91 65 62 76 76 64 64 53 54 49 32 22 17 13 9 6 7 6 7 6 5 7 8 9 10 9 10 9 9 20 68 88 95 99 98 98 100 100 100 100 100 100 100 100 100 100
68 64 71 76 75 91 96 69 60 76 85 65 57 45 36 44 42 24 11 15 14 9 6 5 4 6 6 6 5 5 7 8 9 9 9 8 7 9 25 64 93 96 97 96 97 99 100 99 98 100 100 100 100 100
48 70 89 100 99 88 68 53 60 78 80 66 39 31 35 31 19 10 13 15 8 5 4 4 5 5 5 5 5 5 6 7 8 9 9 8 7 8 9 24 78 100 100 96 100 100 100 100 97 98 100 100 96 99
99 100 99 100 61 52 64 90 87 54 33 27 28 32 31 18 9 12 10 7 5 4 4 5 5 5 5 5 5 6 6 6 6 8 8 8 7 7 8 12 30 74 91 98 100 100 100 100 99 100 100 100 100 100
85 79 69 72 77 90 80 60 50 42 38 45 49 38 16 7 8 8 6 5 4 4 5 5 5 5 5 5 7 6 6 6 6 7 7 7 7 7 8 9 12 40 78 97 100 100 99 98 92 94 98 98 98 95
72 47 66 77 78 66 49 47 49 57 67 59 28 10 6 7 7 5 5 4 5 5 5 5 5 5 5 5 6 6 6 5 6 6 6 6 7 7 7 8 8 19 51 80 98 100 100 98 96 98 98 89 78 84
46 68 67 56 43 41 46 59 71 79 70 23 8 7 6 6 6 5 5 6 5 5 5 5 4 4 5 5 5 5 6 6 5 5 6 6 6 6 7 8 8 10 33 74 100 100 100 100 94 83 84 87 84 83
61 54 51 44 37 43 56 67 62 40 17 9 7 6 6 6 6 6 6 5 5 5 5 5 4 5 4 5 5 5 5 5 5 5 5 5 5 6 6 8 9 9 20 52 79 100 100 100 100 85 84 80 78 75
45 50 47 50 62 72 39 17 14 14 11 7 6 6 6 7 7 6 5 5 5 6 6 5 5 5 4 5 5 5 4 5 5 5 5 5 5 5 6 8 9 10 14 34 70 96 100 96 84 88 94 88 76 78
52 50 42 26 18 14 12 12 10 8 6 7 7 7 7 7 7 6 6 6 6 6 6 5 5 5 5 5 5 4 4 4 4 5 5 5 5 6 6 8 9 10 14 24 58 81 93 89 79 80 88 86 88 85
21 15 12 10 10 9 8 7 7 7 6 6 7 7 7 7 7 6 5 6 6 6 5 5 5 5 5 5 5 5 4 4 5 5 5 5 5 6 6 8 9 10 13 22 44 68 73 77 80 78 78 88 85 74

GFSWCAN_250_rhum_105.txt.gz
RH
100 100 98 86 83 87 63 73 84 86 70 42 44 34 43 39 58 55 40 41 66 77 93 78 75 70 61 61 58 60 60 57 55 56 56 55 53 51 50 50 53 54 54 52 49 46 46 48 45 44 43 47 48 51
100 100 97 100 86 83 53 42 81 75 84 61 39 54 56 48 40 51 57 53 56 54 74 93 88 74 75 72 74 69 63 68 73 72 69 70 70 68 67 64 63 61 57 57 57 58 54 54 52 50 47 46 46 45
100 100 100 100 77 97 100 67 89 74 56 49 58 57 35 60 50 54 57 66 69 65 49 54 89 96 76 75 71 75 78 77 75 79 78 77 75 74 74 77 76 74 73 72 70 68 67 64 60 58 56 55 54 53
100 100 100 100 99 91 99 82 91 89 68 68 64 64 46 39 61 67 65 72 73 71 61 46 53 63 98 85 77 74 73 82 85 84 82 80 76 74 75 77 82 83 86 88 88 84 79 76 78 74 69 66 65 63
100 100 100 100 100 96 99 82 73 85 93 68 66 45 58 50 68 60 73 64 82 78 71 65 41 48 63 90 99 80 80 74 79 82 81 75 75 73 72 72 70 71 77 77 78 77 84 85 82 77 74 70 66 64
100 100 100 100 100 100 100 100 84 71 94 81 92 70 60 83 77 51 70 69 71 77 67 68 76 69 37 54 83 100 93 84 76 78 83 82 74 70 67 66 70 70 74 77 81 79 78 77 79 80 81 82 75 71
100 100 97 100 100 100 100 100 90 100 74 73 81 68 58 59 74 72 96 87 80 99 88 65 59 73 68 38 38 72 100 100 88 77 70 77 83 80 71 66 64 65 63 65 69 68 73 79 77 76 80 82 80 77
100 100 100 100 100 100 100 100 100 100 90 72 91 100 79 85 84 99 54 88 71 97 97 70 65 71 79 71 44 31 59 84 100 99 92 69 75 85 81 85 72 73 80 79 76 65 64 66 63 71 77 80 82 85
100 100 100 100 94 100 87 100 95 99 89 73 79 89 89 94 96 100 98 71 80 86 79 74 78 76 76 66 47 37 27 52 63 99 94 84 90 98 63 97 88 82 77 86 100 100 88 83 72 67 71 76 76 80
100 67 100 100 100 100 85 91 100 97 87 100 100 84 96 100 100 100 89 87 69 83 76 62 64 75 88 71 62 33 35 26 42 72 77 87 100 100 60 89 100 75 95 87 80 86 100 100 100 95 82 82 97 91
100 100 100 100 100 100 100 100 100 100 88 96 96 100 95 100 100 91 100 100 74 85 64 72 46 53 64 65 66 35 33 30 25 60 93 68 100 100 98 64 97 89 87 74 75 73 77 83 99 100 100 100 93 95
100 100 100 100 100 100 100 100 100 100 100 100 99 94 100 87 100 100 100 100 75 81 64 74 57 58 64 57 50 38 25 28 25 24 78 100 92 92 100 96 77 88 87 97 100 97 81 76 82 92 88 91 98 100
100 100 100 100 100 100 100 100 99 98 100 100 97 92 100 99 100 100 100 100 81 71 66 58 62 64 56 55 49 47 22 25 22 24 24 97 100 97 85 94 100 76 75 80 90 96 95 99 80 77 86 93 97 85
100 100 100 100 100 100 100 100 100 100 100 100 100 100 99 100 100 100 100 100 100 84 66 58 66 70 67 71 67 43 22 19 20 19 20 18 21 88 100 99 93 100 75 64 70 85 93 86 94 97 99 92 78 85
100 100 100 100 100 100 100 100 100 93 99 100 100 100 100 100 100 100 100 100 96 68 63 72 63 62 58 66 79 55 25 12 13 15 13 15 14 15 33 93 100 97 94 71 59 62 75 98 96 90 100 100 99 92
100 100 100 100 100 100 100 100 100 100 100 100 100 100 100 100 100 100 100 99 92 71 63 69 64 60 50 76 93 84 28 10 11 12 12 12 15 18 16 22 84 87 99 97 70 59 66 91 100 100 100 100 100 100
100 100 100 100 100 100 100 100 100 100 100 100 100 100 100 100 100 100 96 94 85 63 53 54 63 48 56 99 95 74 20 21 19 12 10 11 12 12 19 17 34 78 89 97 99 77 64 74 100 100 100 100 100 100
100 100 100 100 100 100 100 100 100 100 100 100 100 100 100 100 100 100 100 100 80 50 48 58 44 57 82 92 66 42 27 20 19 15 11 9 11 13 13 16 17 29 55 90 99 98 73 66 80 100 100 100 100 100
100 100 100 100 100 100 100 100 100 100 100 100 100 100 100 100 100 100 100 100 72 48 39 44 48 70 90 78 68 60 32 23 22 17 12 8 8 11 13 13 15 17 23 38 78 96 94 83 72 84 98 100 100 100
83 92 100 100 100 100 100 100 100 100 100 100 100 100 100 100 100 100 92 80 55 28 37 49 59 58 66 80 78 59 36 25 19 15 14 8 7 8 10 11 13 14 18 20 33 74 94 92 78 75 77 92 100 100
100 100 100 100 100 100 100 100 73 79 100 96 90 100 100 100 100 100 100 81 38 36 46 46 42 51 62 76 81 58 37 20 16 12 11 8 6 7 8 8 9 11 14 19 20 29 65 96 100 98 92 85 88 89
82 100 100 66 85 100 84 66 63 100 100 100 100 100 100 100 100 100 73 48 36 52 39 41 47 54 55 66 53 37 21 14 10 9 8 7 6 7 9 9 8 10 11 16 20 19 30 63 92 100 100 98 94 96
100 97 100 89 100 100 74 86 100 100 100 100 97 86 100 100 100 93 78 56 68 32 36 52 46 45 53 60 44 23 14 8 7 6 6 6 6 7 10 10 8 9 11 13 18 21 16 31 58 87 97 96 96 96
24 15 28 48 84 85 54 100 100 99 100 100 100 100 100 100 100 73 49 74 44 30 48 41 43 59 54 34 21 11 9 5 5 5 5 5 6 6 9 10 9 10 12 13 14 20 18 13 17 38 77 89 96 99
31 16 14 21 38 52 72 100 100 100 100 100 100 100 100 98 69 38 42 62 35 30 32 45 49 35 28 18 13 9 6 4 5 5 5 6 6 6 8 9 9 10 12 12 14 15 16 13 10 13 34 79 94 100
14 14 14 19 43 87 100 100 100 100 100 100 100 100 100 74 60 73 85 30 26 33 46 45 30 25 17 10 9 7 5 5 5 5 5 5 6 7 8 10 10 12 13 12 12 13 13 11 9 10 15 30 70 89
28 31 78 90 82 84 100 100 100 100 100 100 100 100 93 63 47 48 25 20 32 44 35 30 30 14 10 9 7 5 5 4 4 5 5 6 7 7 8 11 11 11 11 12 12 12 11 9 8 9 10 15 27 64
92 100 100 100 100 100 100 100 100 100 100 100 91 64 40 32 34 22 20 33 33 26 18 15 13 10 8 7 5 5 4 4 5 5 5 6 7 7 8 9 9 9 10 9 9 9 8 8 8 8 8 10 17 28
83 99 100 100 100 100 97 88 96 96 94 64 42 38 44 40 25 23 33 33 28 22 11 8 8 7 7 6 5 5 5 5 5 5 5 6 6 6 6 6 6 6 7 6 6 7 7 7 7 7 7 8 11 20
100 100 94 75 66 52 55 64 73 56 37 30 36 40 31 24 31 29 18 11 9 7 7 8 7 7 7 6 5 5 5 5 5 6 6 5 5 5 6 6 6 6 6 6 6 6 6 6 6 7 8 9 10 13
86 70 81 77 64 60 58 53 46 42 35 32 24 24 33 37 33 22 12 8 7 7 7 6 6 7 7 7 6 6 5 6 6 6 6 5 5 5 5 5 5 6 6 6 6 6 6 6 7 7 9 10 11 15
82 75 58 51 51 46 37 32 30 25 24 29 35 34 29 22 17 15 12 7 7 7 8 8 7 8 8 7 7 6 5 6 6 6 6 6 6 5 5 5 5 6 5 6 6 6 6 6 7 7 9 10 11 18
54 43 36 38 39 36 32 28 27 29 29 24 21 14 10 9 11 11 7 6 9 9 8 8 8 8 8 7 6 5 6 6 6 6 6 5 5 5 5 5 5 5 5 5 5 6 6 6 7 8 10 12 14 21

GFSWCAN_250_rhum_111.txt.gz
RH
100 100 100 100 100 100 100 100 100 97 100 81 68 97 100 86 88 100 83 64 40 32 22 43 35 37 52 43 37 54 59 64 67 70 68 67 68 68 67 64 58 54 49 46 44 43 42 42 43 50 47 45 43 43
93 100 100 100 100 100 90 100 100 100 100 100 98 66 79 66 97 82 89 72 58 45 26 32 55 41 31 50 45 40 51 67 67 73 76 68 66 63 63 63 65 70 67 63 58 54 50 50 52 53 55 55 56 59
83 84 94 100 100 100 100 100 100 100 100 100 100 98 72 96 78 99 91 79 65 55 43 29 33 48 40 32 48 54 48 44 64 82 74 73 79 70 67 62 57 54 56 61 67 68 67 64 61 59 58 58 59 59
84 100 100 100 80 100 100 100 100 100 100 100 94 100 96 100 100 100 91 89 71 58 53 41 42 30 46 39 36 47 55 61 53 51 68 89 86 78 71 64 61 59 56 54 52 52 56 61 65 69 69 67 65 65
83 82 100 100 68 100 100 100 100 100 93 100 98 100 100 100 100 100 100 98 91 80 61 50 46 38 41 42 37 43 49 57 54 57 51 50 78 79 61 64 76 71 66 62 58 56 56 54 50 52 58 66 72 70
100 98 81 100 100 72 100 100 100 100 100 100 94 70 94 100 100 100 100 100 100 100 81 82 63 48 43 36 28 26 44 48 62 52 50 53 57 63 34 56 93 79 83 79 73 65 60 56 52 52 52 48 51 61
87 100 97 94 100 100 100 93 100 100 100 100 100 86 84 98 91 100 100 93 99 100 99 100 73 70 56 46 34 29 32 48 48 58 48 51 56 72 74 58 46 97 83 86 92 88 75 65 62 57 54 55 50 50
100 100 100 100 100 100 97 94 100 100 96 100 100 100 100 91 69 92 100 100 97 82 91 92 100 76 71 65 53 34 30 61 57 65 60 52 65 64 64 50 51 54 89 97 95 96 93 84 85 78 72 70 71 65
100 100 100 100 100 100 97 100 100 100 93 98 98 100 100 100 99 100 100 100 100 95 98 99 100 100 77 90 70 52 39 49 45 53 57 63 69 59 56 54 54 47 43 48 60 88 100 92 72 79 83 83 74 68
100 100 100 100 99 100 100 100 92 81 60 95 100 100 100 100 99 83 100 100 100 100 100 100 100 100 94 92 80 63 52 51 59 55 55 56 73 68 68 64 66 58 53 39 40 50 48 86 83 78 84 77 73 74
75 92 98 99 100 100 100 100 100 100 100 100 100 100 99 81 100 88 91 100 100 94 86 100 100 95 94 92 88 89 84 61 61 82 38 56 68 80 80 62 64 66 64 51 46 33 32 44 43 76 78 88 78 79
87 73 73 73 73 86 91 94 97 100 100 100 100 100 100 100 100 100 97 82 100 100 100 100 100 100 100 99 80 82 70 70 86 82 66 44 71 86 73 74 58 58 52 54 52 45 39 27 23 34 51 82 94 86
98 100 100 100 97 92 89 85 100 100 100 100 100 100 100 100 98 100 100 100 100 100 100 100 100 100 100 96 89 88 81 97 100 95 78 57 93 83 76 68 63 55 61 53 51 54 42 39 33 21 22 34 42 81
100 100 100 100 100 100 100 100 100 100 100 100 100 98 98 100 100 100 100 100 100 100 100 100 100 100 100 100 100 100 87 100 100 100 63 80 100 89 75 65 65 48 55 50 43 43 41 41 37 29 25 19 20 32
74 100 100 100 100 100 100 100 100 100 100 100 100 100 100 100 100 100 100 100 98 100 100 100 100 100 100 100 99 98 100 100 100 60 81 100 99 94 84 71 63 55 44 52 45 43 49 44 28 31 25 23 20 16
15 32 60 81 100 99 96 98 100 100 100 100 100 100 100 100 100 100 100 100 100 100 100 100 100 100 100 89 83 100 100 100 50 70 94 100 100 96 90 90 53 50 46 38 42 42 50 59 56 37 22 23 23 19
11 12 15 14 16 31 38 44 69 100 100 100 100 100 100 100 100 100 100 100 100 100 100 100 100 100 100 100 100 100 100 66 66 73 100 100 100 84 91 91 56 53 48 44 43 52 59 65 60 54 45 33 23 18
8 10 11 12 11 23 28 20 27 30 24 55 95 93 36 92 100 100 100 100 100 100 100 100 100 100 100 98 100 100 100 75 94 96 85 100 100 97 100 78 59 47 39 49 58 63 68 63 56 48 33 28 24 15
5 6 8 9 10 11 11 24 21 18 17 18 27 23 30 68 100 83 100 100 100 100 100 100 100 100 100 100 100 100 100 88 99 88 90 100 100 100 66 55 52 44 47 51 56 63 60 59 52 35 28 22 14 11
5 5 6 8 9 10 11 12 13 13 14 15 16 23 24 46 94 100 100 100 100 100 72 90 100 100 100 100 100 100 100 99 100 95 89 91 99 81 56 54 50 42 46 57 59 58 47 44 37 27 17 10 8 8
4 5 5 6 7 9 10 10 11 12 13 14 18 20 22 36 72 100 100 100 100 100 59 94 100 100 100 100 100 100 100 96 100 95 88 96 97 87 70 57 43 40 41 56 62 50 41 28 20 12 8 6 6 6
5 4 4 4 5 6 7 8 9 10 10 13 14 14 21 40 52 98 100 100 99 56 67 100 100 100 100 100 100 100 100 98 100 92 85 96 93 71 74 62 43 39 48 55 48 39 28 18 11 7 6 5 5 5
4 4 4 4 5 5 5 6 6 8 9 11 11 12 16 35 51 60 63 29 40 94 92 100 100 100 100 100 100 100 100 93 90 100 95 84 77 77 63 47 37 36 38 41 41 31 20 12 7 6 5 5 5 5
4 4 4 4 4 4 4 6 7 8 8 9 10 11 14 23 24 17 16 35 85 79 100 96 88 100 100 100 100 100 95 83 89 88 82 64 58 57 43 38 40 41 35 33 33 22 11 8 7 5 5 4 4 5
4 3 3 3 3 3 4 5 6 7 8 9 9 11 13 15 15 16 32 87 83 100 100 100 98 91 98 100 100 98 85 76 64 90 93 54 46 41 42 36 33 36 32 30 24 12 7 7 6 5 5 4 5 5
3 3 3 3 3 3 4 4 5 5 6 7 9 10 11 12 16 23 52 81 100 100 98 100 100 100 100 100 100 100 85 88 96 91 66 45 44 41 29 33 39 39 28 22 13 8 7 7 6 5 5 5 5 5
2 3 3 3 4 4 4 5 5 6 6 7 9 10 11 19 23 23 34 58 57 55 86 100 100 100 100 100 100 82 88 86 72 59 62 50 34 30 31 39 44 34 24 13 8 7 7 7 6 6 5 5 5 7
2 3 4 4 4 4 5 6 6 7 9 10 12 14 20 19 18 19 20 19 27 56 93 100 100 100 98 72 60 59 61 64 55 54 54 39 35 36 39 42 35 26 15 8 7 7 8 7 6 5 5 6 6 7
4 4 4 4 4 4 5 6 7 9 11 13 14 14 15 14 15 14 13 16 24 32 41 77 83 72 71 70 78 81 70 56 53 48 36 39 39 42 43 33 22 16 10 7 7 8 8 6 5 5 5 5 5 6
5 5 5 5 5 6 6 7 8 9 10 11 11 11 12 13 12 11 13 16 20 21 25 31 37 46 60 73 75 63 53 42 31 34 42 42 47 40 28 21 13 9 8 8 8 8 7 6 5 5 5 6 5 5
5 5 6 6 6 7 7 8 8 8 8 8 8 9 10 11 11 12 13 13 13 15 28 37 39 48 64 76 64 36 25 30 34 40 44 47 35 23 14 9 8 8 8 8 8 7 6 5 5 6 6 5 5 5
6 7 7 7 7 8 8 8 8 8 8 8 9 10 11 12 13 13 16 16 16 18 20 24 33 34 31 29 28 28 33 40 44 39 37 27 16 9 7 8 8 7 8 8 7 6 6 6 6 6 5 5 5 5
7 7 7 7 7 7 7 7 8 9 10 10 10 9 10 12 14 15 12 12 16 20 24 27 28 27 27 30 39 43 38 35 31 23 16 9 7 8 8 8 7 8 8 7 6 5 6 6 6 6 6 5 5 5

GFSWCAN_250_rhum_117.txt.gz
RH
100 100 93 80 90 100 98 56 100 100 89 91 100 100 99 97 91 100 100 100 100 92 100 79 87 60 50 53 57 75 50 41 29 36 32 40 40 49 39 36 50 58 56 56 56 56 60 65 69 65 58 56 54 52
100 100 100 100 74 82 85 42 84 100 100 88 100 100 100 95 96 100 98 100 100 100 100 90 100 92 63 47 39 81 75 49 31 49 37 33 42 50 47 48 40 34 41 52 57 56 55 54 54 55 62 67 64 62
100 100 100 100 100 79 100 100 98 100 100 100 96 100 100 100 100 100 100 100 100 100 100 100 98 100 88 75 47 42 88 55 27 46 55 33 32 37 42 50 47 52 48 42 34 40 57 57 62 59 54 53 54 59
100 100 100 100 100 100 96 99 94 95 100 100 100 99 100 100 100 100 100 100 79 63 78 100 94 100 96 89 59 50 39 60 43 92 84 61 48 28 33 39 46 52 53 51 52 47 44 46 47 52 59 63 63 57
100 100 100 100 100 100 100 95 75 93 100 100 100 100 100 100 100 100 100 100 100 98 74 97 100 100 96 100 83 74 49 43 51 100 88 98 57 28 27 32 36 43 53 55 56 48 48 51 43 41 38 45 60 61
100 100 100 100 100 100 100 100 85 63 57 66 100 100 100 100 100 100 100 100 100 100 99 100 100 100 90 98 92 100 75 80 50 85 93 100 98 63 48 53 48 39 40 45 50 66 67 55 53 50 49 44 32 34
100 100 94 100 100 100 100 100 100 84 75 64 64 99 100 100 100 100 100 100 100 100 100 100 100 100 100 100 100 84 99 69 52 26 99 92 95 84 90 98 75 63 46 48 54 52 59 74 68 67 50 45 44 48
97 100 100 98 100 100 100 100 90 96 76 83 70 76 83 93 95 100 100 100 100 100 100 99 100 100 100 100 100 100 97 84 67 70 67 100 80 68 77 91 100 96 70 49 50 52 52 56 73 70 73 68 52 49
77 77 82 84 95 94 100 100 100 92 85 78 94 81 69 82 98 100 100 100 100 100 100 100 100 100 100 100 100 100 92 79 82 78 76 87 100 100 96 82 78 100 100 96 61 47 50 54 53 71 72 70 87 63
53 58 71 84 94 73 100 100 100 100 100 76 70 82 83 86 100 100 100 100 99 100 100 100 100 100 100 100 100 100 89 100 100 100 68 84 100 100 91 93 71 88 97 100 100 76 50 56 60 50 71 71 73 72
47 54 54 66 99 86 95 100 100 100 100 100 100 98 82 95 96 100 99 99 97 85 100 100 100 100 100 100 100 100 100 100 98 100 60 100 100 100 80 84 100 98 99 100 100 100 81 62 95 82 57 55 57 73
63 76 72 68 83 95 44 94 100 100 100 100 100 100 100 92 100 97 100 92 88 97 100 100 100 100 100 100 100 100 100 100 96 96 82 74 100 97 99 98 100 100 100 100 100 100 100 88 100 100 98 79 78 67
15 20 32 56 22 21 30 66 98 100 100 100 100 100 100 99 95 92 91 100 93 100 100 100 100 100 100 100 100 100 100 100 100 61 87 100 100 100 100 100 100 100 100 100 100 100 100 100 100 100 100 99 88 87
11 10 12 16 15 18 18 24 39 74 100 100 99 100 92 93 93 88 100 94 100 100 100 100 100 100 100 100 100 100 100 100 100 99 99 100 100 100 100 100 100 100 100 100 100 83 78 100 100 100 100 100 100 100
9 8 9 11 15 16 17 17 23 47 51 91 97 67 72 78 83 86 73 95 100 95 98 100 100 100 99 100 100 100 100 100 100 100 100 100 98 100 100 100 100 100 100 100 83 66 100 100 100 100 100 100 100 100
7 8 9 9 11 14 14 16 16 19 25 22 35 56 81 67 80 88 97 92 66 90 82 77 74 66 87 100 100 100 100 100 100 100 100 70 95 100 100 100 100 100 100 77 78 65 94 100 100 100 100 100 100 100
5 5 7 8 8 9 11 12 12 13 13 14 16 17 26 49 49 44 39 28 40 57 77 84 79 100 82 84 100 100 100 100 100 100 100 100 100 100 94 100 100 100 98 75 61 70 94 100 100 100 100 100 100 100
5 5 5 5 6 7 8 8 9 9 10 9 12 15 17 18 20 21 18 19 33 55 76 78 63 47 58 72 99 100 100 100 100 100 99 99 100 100 100 89 100 100 100 100 100 96 100 96 98 100 100 100 100 100
7 6 6 5 4 5 5 5 6 7 8 8 8 10 14 15 16 17 18 19 18 22 20 21 18 26 39 44 89 100 100 99 92 82 80 86 98 100 100 100 98 96 97 100 98 90 87 82 100 100 100 100 100 92
8 8 7 5 4 4 4 4 4 5 6 6 7 8 10 12 13 14 15 16 16 15 15 14 15 21 31 52 92 100 100 85 80 96 100 100 100 100 99 98 100 96 99 100 100 100 91 98 100 100 100 100 86 80
7 8 8 6 5 4 3 4 4 4 4 5 6 6 6 8 11 12 12 13 13 13 13 14 14 16 25 55 99 100 100 96 64 64 90 100 100 64 84 85 80 96 100 100 100 91 97 100 89 93 86 82 90 66
6 7 6 6 5 4 4 4 4 4 4 4 4 4 5 6 8 9 10 9 9 11 13 14 15 16 18 27 79 100 100 92 97 100 96 98 98 84 93 98 94 76 74 84 91 100 100 96 88 86 96 80 57 49
6 6 5 5 5 4 5 6 5 5 4 4 4 4 4 4 5 7 6 7 9 11 14 15 16 16 18 29 30 40 60 60 82 98 65 89 83 60 88 84 52 62 69 86 87 100 98 95 84 70 61 56 42 38
5 5 4 4 4 5 6 6 6 6 6 5 4 4 4 4 4 4 4 5 8 11 12 14 16 17 19 20 19 23 29 54 64 49 76 61 38 70 86 51 71 87 72 71 90 97 86 74 76 78 62 44 41 37
4 4 4 4 5 6 6 6 6 6 6 5 5 5 5 4 4 3 4 6 6 8 9 9 10 12 14 13 14 23 48 46 26 31 42 35 60 74 40 27 67 88 76 70 96 98 89 74 65 61 46 46 43 26
4 4 5 6 6 6 6 6 6 5 5 6 5 6 6 5 4 5 8 8 7 7 8 9 10 9 10 12 14 17 18 16 15 17 30 38 47 30 28 61 66 59 73 76 64 62 64 55 57 53 46 43 28 31
4 6 6 5 5 5 5 6 6 6 7 7 6 6 5 4 5 8 10 11 10 9 7 6 6 6 8 9 10 11 12 12 12 21 39 34 29 22 33 47 40 43 47 49 54 53 54 61 67 56 42 27 23 30
7 7 6 5 5 6 6 6 7 8 8 7 6 6 6 6 9 11 9 9 7 6 5 6 6 6 6 7 8 9 11 12 12 15 18 21 18 18 20 22 28 28 30 41 40 38 44 55 52 44 30 20 27 21
6 6 5 6 6 6 7 8 8 8 6 4 4 5 6 6 6 6 6 6 6 6 6 6 6 6 6 7 8 11 12 12 13 14 14 15 15 14 14 16 19 23 24 24 30 39 42 41 34 19 20 27 19 13
5 5 6 6 6 7 6 6 5 4 4 4 4 5 6 6 6 5 5 6 6 7 7 6 6 6 6 7 9 10 11 11 11 12 12 13 12 12 15 16 17 19 19 27 34 34 25 20 16 21 25 20 13 14
6 6 6 6 6 4 4 5 4 5 5 5 5 6 7 6 5 5 5 5 5 5 5 6 6 6 6 7 8 8 9 10 11 11 11 12 12 14 15 15 14 17 22 22 22 18 14 15 26 24 19 13 14 13
5 5 5 5 4 4 5 5 6 6 6 6 6 6 5 5 5 5 5 5 6 5 5 5 6 6 7 7 8 9 10 10 9 10 11 12 12 13 13 16 20 19 17 14 13 12 18 27 23 17 12 13 12 10
6 6 6 6 6 6 6 5 5 5 5 5 5 5 5 5 5 4 5 5 5 5 6 6 6 7 7 8 8 8 8 9 10 11 11 11 12 14 16 16 15 13 11 10 16 25 24 21 14 12 13 11 10 9

GFSWCAN_250_rhum_120.txt.gz
RH
100 100 98 98 100 100 84 84 98 100 100 100 100 98 100 100 100 100 90 100 100 99 100 85 83 55 88 90 90 69 59 52 39 25 34 29 23 35 44 40 40 40 37 38 36 36 42 50 56 59 58 57 54 52
100 100 100 100 91 100 100 100 84 88 100 100 100 100 100 100 100 100 100 93 100 100 100 100 93 100 100 100 100 94 82 67 65 45 37 44 36 22 37 40 39 42 40 37 36 36 39 41 37 39 45 52 55 57
100 100 100 100 100 100 100 100 100 100 90 100 100 100 100 99 100 100 100 100 90 100 100 100 100 100 100 100 100 100 97 88 89 78 61 56 42 36 22 37 40 39 44 48 50 51 49 40 37 36 37 40 40 38
100 100 100 100 100 100 100 100 94 100 100 100 100 100 100 100 100 100 100 96 95 87 100 100 100 94 100 100 100 88 99 97 100 96 80 74 63 51 46 30 27 37 42 38 39 43 49 50 51 48 41 40 38 38
100 100 100 100 100 100 100 100 100 100 100 100 100 100 100 100 100 100 99 96 100 92 85 100 100 100 100 100 100 98 100 96 100 100 88 88 84 72 64 58 27 24 35 43 46 40 37 41 42 51 54 56 50 40
53 70 100 100 100 100 100 100 100 100 100 100 100 100 100 99 100 100 100 100 99 100 90 79 100 100 100 100 100 100 100 100 100 100 79 99 87 98 100 91 72 48 36 32 46 50 51 54 60 44 51 64 61 56
51 53 59 80 98 100 100 100 100 100 100 100 100 100 100 100 100 98 100 100 100 100 97 96 96 100 100 100 100 100 100 100 100 100 91 97 100 100 100 100 100 87 92 99 49 42 51 65 64 87 88 53 60 68
74 70 60 65 67 72 95 100 100 100 100 100 100 100 100 100 100 100 100 100 100 100 100 82 100 100 100 100 100 100 100 100 100 100 97 100 100 100 100 79 100 71 96 100 89 74 56 41 54 100 100 99 90 77
98 76 82 91 72 59 66 86 95 100 100 100 100 100 100 97 96 100 98 100 100 100 92 97 100 100 100 100 100 100 100 100 100 100 84 100 100 100 100 82 85 76 100 100 74 89 89 47 49 86 95 76 71 100
100 100 93 100 94 84 76 94 82 94 100 100 100 100 100 100 100 100 100 84 97 100 100 100 99 100 100 100 100 100 100 100 100 100 97 98 100 100 100 96 98 100 84 97 100 100 100 79 76 68 72 84 66 89
50 79 83 83 94 99 100 91 100 100 100 96 93 100 100 100 100 100 100 99 99 100 100 100 100 100 99 100 100 100 100 100 100 99 100 100 100 100 100 95 86 85 98 100 100 94 79 100 92 99 100 98 81 96
16 30 35 33 58 72 80 100 100 100 85 86 98 100 100 100 100 100 100 93 79 88 100 100 100 100 100 100 100 100 100 100 100 100 100 100 100 100 99 99 91 98 98 99 100 76 100 100 100 100 97 95 85 97
10 12 14 14 16 24 23 20 23 50 68 100 100 89 95 79 76 81 72 70 99 100 100 100 100 100 98 91 97 100 100 100 100 100 100 100 100 90 95 100 100 100 100 100 100 82 100 100 100 100 100 100 91 70
9 10 10 12 11 13 13 12 14 15 21 21 34 36 55 63 71 78 68 64 86 100 100 100 100 94 100 100 100 100 99 100 100 100 100 100 100 100 100 100 100 100 100 100 100 100 100 100 100 100 92 86 88 89
8 9 9 10 10 10 11 11 11 12 13 14 16 18 32 45 58 73 59 38 54 58 44 57 78 100 100 100 100 91 90 83 100 100 100 94 99 100 100 100 100 100 100 100 100 88 100 100 100 100 100 100 98 100
6 5 6 7 7 9 9 10 9 9 9 9 10 12 18 22 29 42 30 21 24 21 20 28 54 58 80 68 87 100 98 100 100 100 100 100 95 100 98 95 100 100 100 100 100 89 100 100 100 93 100 100 100 100
6 5 6 6 6 6 6 7 8 8 8 9 9 10 10 14 14 14 16 16 17 14 15 19 21 42 43 42 66 96 100 100 100 100 100 96 88 99 100 100 100 100 100 100 100 100 100 100 94 98 86 85 93 100
7 7 8 7 6 5 5 5 5 6 6 7 8 8 9 9 11 12 13 13 16 17 16 15 16 16 15 19 37 61 96 100 100 100 78 80 63 68 79 100 100 100 100 100 100 100 100 99 80 99 89 92 100 100
8 8 9 9 7 6 5 4 4 4 5 5 6 6 7 8 9 12 12 12 14 16 16 16 14 14 15 18 30 48 60 76 81 43 38 57 56 72 100 100 96 79 88 98 97 84 71 88 88 100 100 96 96 96
8 8 9 8 7 6 5 4 4 4 5 5 5 6 6 7 8 9 10 10 10 12 12 12 12 16 17 18 19 19 23 25 23 22 25 29 42 66 100 85 48 41 49 100 97 73 95 96 90 91 89 94 90 81
7 8 8 7 6 6 5 5 5 5 5 5 5 4 5 5 6 7 8 8 8 8 9 11 14 16 17 19 20 21 21 21 18 18 19 23 30 50 49 40 51 51 67 100 100 99 78 72 92 100 100 92 80 71
6 7 7 6 6 5 5 6 6 7 6 6 6 5 5 5 5 5 6 5 6 7 8 10 13 14 15 16 17 17 17 16 15 16 19 23 36 47 30 24 40 38 54 97 100 95 84 91 97 98 96 83 77 57
6 6 5 5 4 4 5 6 6 7 7 8 7 7 7 6 6 5 4 4 5 6 8 9 11 12 13 14 15 15 16 16 16 16 17 20 24 23 18 22 34 27 46 75 81 86 95 87 81 74 55 68 60 41
5 5 4 4 4 5 6 7 7 7 7 7 7 8 8 8 7 5 4 5 6 6 6 7 7 7 8 9 10 14 14 13 12 13 15 17 17 16 16 17 27 56 76 89 94 100 88 84 70 68 70 60 37 22
4 4 4 4 6 6 7 8 8 7 7 6 6 8 9 8 6 4 5 8 9 8 7 6 6 6 6 6 6 8 10 11 11 11 13 14 14 14 16 17 27 66 74 86 64 55 61 42 42 59 54 35 21 18
3 3 4 5 7 6 7 7 7 6 6 5 7 8 8 6 5 6 11 13 11 10 9 7 5 5 4 5 5 7 8 8 8 9 11 12 13 14 16 18 27 37 31 24 34 52 33 24 34 43 42 18 16 17
4 5 7 7 7 6 6 6 6 5 6 6 7 6 6 6 7 11 13 13 10 10 7 5 4 4 4 4 5 5 5 5 6 7 10 11 12 13 14 17 18 17 19 38 40 27 19 19 25 26 18 15 14 16
9 9 7 6 4 5 5 6 6 7 6 6 5 5 5 7 10 11 9 7 7 7 5 5 4 4 4 4 4 4 4 5 5 6 7 8 9 9 10 11 12 14 18 18 17 16 15 15 20 17 13 14 18 18
6 5 4 5 5 5 6 6 6 5 5 4 4 5 6 7 9 8 7 7 7 6 7 6 6 6 7 6 5 5 5 5 5 6 6 6 7 7 8 10 11 11 12 13 12 13 16 17 13 12 13 16 17 17
4 4 4 4 5 5 4 4 4 4 4 5 6 6 7 8 8 7 8 8 8 7 6 6 6 6 6 5 5 6 5 5 5 5 5 6 7 8 8 9 9 10 11 11 12 13 13 12 12 13 14 15 15 17
4 5 5 5 5 4 4 5 5 6 6 7 7 8 8 7 7 8 8 7 7 7 7 7 6 5 5 4 5 5 5 5 5 5 6 6 7 7 7 8 8 10 10 10 11 11 11 12 13 14 14 15 16 12
6 6 6 6 6 7 7 7 7 7 7 8 8 7 6 6 6 7 7 6 6 6 5 5 5 5 5 5 6 5 5 5 5 5 6 6 6 7 7 8 9 9 10 11 11 12 13 12 12 13 14 12 11 11
6 6 6 6 6 6 6 7 7 7 7 6 7 6 6 6 6 5 5 5 5 5 6 5 5 5 5 5 5 5 5 5 5 6 6 6 7 7 8 8 9 10 11 11 10 10 10 12 13 12 10 11 11 13